This demonstration page uses our WeatherBlox Daily Observations layout. Learn more.

Left ArrowRight Arrow

34.02893, -84.19858

Hourly Observations for December 17, 2018

Temp ( °F °C ) Dew Point ( °F °C ) Humidity (%) Winds ( mph kmh ) Pressure ( in mb ) Visibility ( mi km ) Precip ( " mm )
12:05 am 00:05 Partly Cloudy 48 8.9 44 6.7 86 86 NW 12 19 30.18 1022 10 16 0.00 0.00
12:53 am 00:53 Clear 47 8.3 44 6.7 90 90 NW 8 13 30.15 1021 10 16 0.00 0.00
1:53 am 01:53 Clear 47 8.3 43 6.1 86 86 NNW 8 13 30.14 1021 10 16 0.00 0.00
2:53 am 02:53 Clear 47 8.3 44 6.7 90 90 VRB 3 6 30.14 1021 9 14 0.00 0.00
3:53 am 03:53 Clear 47 8.3 43 6.1 86 86 NW 5 7 30.14 1021 9 14 0.00 0.00
4:53 am 04:53 Clear 47 8.3 43 6.1 86 86 NW 7 11 30.14 1021 9 14 0.00 0.00
5:53 am 05:53 Mostly Clear 46 7.8 43 6.1 89 89 NW 8 13 30.14 1021 8 13 0.00 0.00
6:53 am 06:53 Clear 44 6.7 41 5 89 89 W 5 7 30.14 1021 8 13 0.00 0.00
7:53 am 07:53 Sunny with Mist and Fog 44 6.7 42 5.6 93 93 WNW 7 11 30.17 1022 5 8 0.00 0.00
8:53 am 08:53 Sunny with Mist and Fog 46 7.8 42 5.6 86 86 NW 10 17 30.18 1022 6 10 0.00 0.00
9:53 am 09:53 Sunny 49 9.4 41 5 74 74 NW 10 17 30.20 1023 8 13 0.00 0.00
10:53 am 10:53 Sunny 53 11.7 39 3.9 59 59 NNW 14 22 30.19 1022 9 14 0.00 0.00
11:53 am 11:53 Sunny 57 13.9 36 2.2 45 45 NW 12 19 30.17 1022 10 16 0.00 0.00
12:53 pm 12:53 Sunny 59 15 33 0.6 38 38 WNW 13 20 30.14 1021 10 16 0.00 0.00
1:53 pm 13:53 Sunny 60 15.6 32 0 35 35 NW 14 22 30.10 1019 10 16 0.00 0.00
2:53 pm 14:53 Sunny 59 15 34 1.1 39 39 NW 12 19 30.10 1019 10 16 0.00 0.00
3:53 pm 15:53 Sunny 59 15 33 0.6 38 38 NW 12 19 30.10 1019 10 16 0.00 0.00
4:53 pm 16:53 Sunny 57 13.9 34 1.1 42 42 WNW 7 11 30.11 1020 10 16 0.00 0.00
5:53 pm 17:53 Clear 52 11.1 33 0.6 49 49 NW 7 11 30.12 1020 10 16 0.00 0.00
6:53 pm 18:53 Clear 50 10 34 1.1 54 54 WNW 7 11 30.13 1020 10 16 0.00 0.00
7:53 pm 19:53 Clear 48 8.9 34 1.1 58 58 WNW 3 6 30.14 1021 10 16 0.00 0.00
8:53 pm 20:53 Clear 46 7.8 35 1.7 66 66 WNW 3 6 30.14 1021 10 16 0.00 0.00
9:53 pm 21:53 Clear 42 5.6 35 1.7 76 76 Calm 30.14 1021 10 16 0.00 0.00
10:53 pm 22:53 Clear 45 7.2 36 2.2 71 71 NW 5 7 30.13 1020 10 16 0.00 0.00
11:53 pm 23:53 Clear 45 7.2 35 1.7 68 68 W 7 11 30.12 1020 10 16 0.00 0.00

Powered by AerisWeather